This is the latest recevied weather packets stored in our database for station/object W8DRH-13. If no packets are shown the sender has not sent any weather packets the latest 10 day(s).
| Time | Temp. | Humidity | Pressure | Rain* | Wind** | Luminosity | Snow |
|---|---|---|---|---|---|---|---|
| 1777904094 | 15° C | 67% | 1005.8 hPa | 0 mm | - | 608 W/m² | - |
| 1777903791 | 14.44° C | 66% | 1005.8 hPa | 0 mm | - | 602 W/m² | - |
| 1777903488 | 14.44° C | 66% | 1006 hPa | 0 mm | - | 588 W/m² | - |
| 1777903184 | 14.44° C | 67% | 1005.9 hPa | 0 mm | - | 552 W/m² | - |
| 1777902880 | 14.44° C | 66% | 1005.9 hPa | 0 mm | - | 540 W/m² | - |
| 1777902578 | 14.44° C | 67% | 1006 hPa | 0 mm | - | 526 W/m² | - |
| 1777902275 | 13.89° C | 67% | 1005.9 hPa | 0 mm | - | 489 W/m² | - |
| 1777901972 | 13.89° C | 67% | 1005.8 hPa | 0 mm | - | 462 W/m² | - |
| 1777901670 | 13.89° C | 67% | 1006.1 hPa | 0 mm | - | 411 W/m² | - |
| 1777901367 | 13.89° C | 68% | 1006 hPa | 0 mm | - | 399 W/m² | - |
| 1777901065 | 13.33° C | 68% | 1006.2 hPa | 0 mm | - | 368 W/m² | - |
| 1777900761 | 13.33° C | 69% | 1006.2 hPa | 0 mm | - | 319 W/m² | - |
| 1777900459 | 12.78° C | 69% | 1006.4 hPa | 0 mm | - | 325 W/m² | - |
| 1777900155 | 12.78° C | 69% | 1006.5 hPa | 0 mm | - | 276 W/m² | - |
| 1777899851 | 12.78° C | 69% | 1006.4 hPa | 0 mm | - | 57 W/m² | - |
| 1777899548 | 12.78° C | 70% | 1006.4 hPa | 0 mm | - | 55 W/m² | - |
| 1777899246 | 12.22° C | 70% | 1006.2 hPa | 0 mm | - | 55 W/m² | - |
| 1777898944 | 12.22° C | 70% | 1006.3 hPa | 0 mm | - | 244 W/m² | - |
| 1777898640 | 12.22° C | 70% | 1006.6 hPa | 0 mm | - | 57 W/m² | - |
| 1777898338 | 11.67° C | 70% | 1006.5 hPa | 0 mm | - | 50 W/m² | - |
| 1777898036 | 11.67° C | 71% | 1006.2 hPa | 0 mm | - | 50 W/m² | - |
| 1777897731 | 11.67° C | 71% | 1006.4 hPa | 0 mm | - | 48 W/m² | - |
| 1777897428 | 11.11° C | 71% | 1006.3 hPa | 0 mm | - | 47 W/m² | - |
| 1777897124 | 11.11° C | 72% | 1006.4 hPa | 0 mm | - | 45 W/m² | - |
| 1777896820 | 11.11° C | 72% | 1006.3 hPa | 0 mm | - | 44 W/m² | - |
* Rain latest hour (hover to see other rain measurements)
** Current wind speed in m/s (hover to see current wind gust speed)